Regional Weather Roundup
Issued by NWS

Home | Current Version | Previous Version | Text Only | Print | Product List | Glossary On
Versions: 1 2 3 4 5 6 7 8 9 10 11 12 13 14 15 16 17 18 19 20 21 22 23 24 25 26 27 28 29 30 31 32 33 34 35 36 37 38 39 40 41 42 43 44 45 46 47 48 49 50
000
ASCA42 TJSJ 022210
RWRPR
PUERTO RICO/U.S. VIRGIN ISLANDS HOURLY WEATHER ROUNDUP
NATIONAL WEATHER SERVICE SAN JUAN PR
600 PM AST THU JUL 02 2015

PRZ001-004-022300-
PUERTO RICO

CITY           SKY/WX    TMP DP  RH WIND       PRES   REMARKS
SAN JUAN LMM   MOSUNNY   84  75  74 E15G24    30.05R HX  92
MAYAGUEZ       MOSUNNY   90  75  62 W9        30.06  HX 100
CEIBA          CLOUDY    84  73  70 E10       30.06S HX  91
$$

PRZ006-007-022300-
U.S. VIRGIN ISLANDS

CITY           SKY/WX    TMP DP  RH WIND       PRES   REMARKS
CHARLOTTE AMA  MOSUNNY   86  70  58 E14       30.04R HX  90
CHRISTIANSTED  MOSUNNY   84  72  65 NE14      30.03S
$$

HOURLY WEATHER ROUNDUP FOR THE NEWS MEDIA

CITY           SKY/WX    TMP DP  RH WIND       PRES   REMARKS
ORLANDO        CLOUDY    80  72  76 W5        30.09S
NEW YORK       CLOUDY    72  60  66 SE5       29.88S
NEWARK         PTSUNNY   76  61  59 CALM      29.86S
CHICAGO        MOSUNNY   66  53  63 NE12      29.99S
HARTFORD       CLOUDY    73  61  65 S6        29.86F
BOSTON         CLOUDY    77  56  48 W12G17    29.85F
DALLAS         CLOUDY    93  67  42 S16G22    29.92F HX  96
PHILADELPHIA   CLOUDY    75  63  66 CALM      29.87F
LOS ANGELES    MOSUNNY   74  63  68 W14       29.97F
WASHINGTON DC  CLOUDY    73  61  65 N3        29.89F


USA.gov is the U.S. government's official web portal to all federal, state and local government web resources and services.